[[{"header":{"parameterUnit":"m.s-1","parameterCategory":1,"la1":30.2992,"la2":30.254,"lo1":-89.0895,"lo2":-89.0443,"dy":0.0025,"dx":0.0025,"nx":19,"ny":19,"refTime":"2026-04-15T09:00:00:Z","depth":0,"parameterNumber":2,"parameterNumberName":"U-component_of_WINDS"},"data":[0,0,0,-2.1268,-2.1266,-2.1168,-2.1167,-2.1064,-2.1064,0,0,0,0,0,0,0,0,0,0,0,-2.1311,-2.1311,-2.1268,-2.1266,-2.1168,-2.1167,-2.1065,-2.1064,0,0,0,0,0,0,0,0,0,0,0,-2.1311,-2.1311,-2.1311,-2.1265,-2.1168,-2.1167,-2.1065,-2.113,0,0,0,0,0,0,0,0,0,0,-2.1222,-2.1276,-2.1311,-2.1311,-2.1265,-2.1168,-2.1167,-2.1133,-2.1126,-2.1119,0,-2.1117,0,-2.1089,-2.1058,-2.1058,0,0,0,-2.1254,-2.1282,-2.1243,-2.1311,-2.1264,-2.1168,-2.1209,-2.1129,-2.1121,-2.111,-2.1116,-2.1111,-2.1088,-2.1058,-2.1058,-2.1057,-2.1058,0,0,-2.126,-2.1301,-2.1248,-2.1239,-2.1256,-2.1212,-2.1206,-2.1124,-2.1132,-2.1115,-2.1108,-2.1086,-2.1057,-2.1057,-2.1057,-2.1057,0,0,0,-2.1283,-2.1305,-2.1267,-2.1244,-2.1224,-2.1209,-2.1202,-2.1136,-2.112,-2.1107,-2.1085,-2.1057,-2.1056,-2.1056,-2.1057,-2.1124,0,0,0,-2.1286,-2.1319,-2.127,-2.1295,-2.1226,-2.1179,-2.1217,-2.1126,-2.1115,-2.1085,-2.1057,-2.1055,-2.1055,-2.1056,-2.1121,-2.1148,0,0,0,-2.1313,-2.1322,-2.1313,-2.1297,-2.1257,-2.1179,-2.1158,-2.1122,-2.1102,-2.1058,-2.1055,-2.1055,-2.1056,-2.1118,-2.1143,-2.1161,0,0,0,-2.1353,-2.1372,-2.1315,-2.1328,-2.1258,-2.1223,-2.1159,-2.113,-2.11,-2.1057,-2.1055,-2.1057,-2.1117,-2.114,-2.1158,-2.1183,-2.1197,0,0,-2.14,-2.138,-2.1384,-2.133,-2.1316,-2.1234,-2.1229,-2.1161,-2.1119,-2.108,-2.1079,-2.1122,-2.1143,-2.116,-2.1264,-2.1276,0,0,0,-2.1413,-2.1417,-2.1404,-2.1379,-2.133,-2.129,-2.1219,-2.1195,-2.116,-2.1108,-2.1132,-2.1143,-2.1151,-2.1161,-2.1171,-2.1176,-2.1063,-2.1063,-2.1063,-2.1539,-2.1485,-2.1489,-2.1425,-2.1401,-2.133,-2.1305,-2.126,-2.121,-2.1218,-2.1205,-2.1275,-2.1288,-2.1295,-2.1301,-2.1214,-2.1215,-2.1215,-2.1215,-2.1603,-2.1601,-2.1538,-2.152,-2.1463,-2.1446,-2.1379,-2.1346,-2.1322,-2.1279,-2.1284,-2.1241,-2.131,-2.1312,-2.122,-2.1219,-2.1218,-2.1218,-2.1217,-2.1679,-2.1669,-2.164,-2.1599,-2.1574,-2.1507,-2.1489,-2.1437,-2.1388,-2.1393,-2.1375,-2.1373,-2.1365,-2.1388,-2.1388,-2.1389,-2.1389,-2.1389,-2.1389,-2.1769,-2.1734,-2.1725,-2.1677,-2.1655,-2.1619,-2.155,-2.1526,-2.1487,-2.1451,-2.1451,-2.1402,-2.1327,-2.1309,-2.1393,-2.1392,-2.1391,-2.1391,-2.1391,-2.1853,-2.1827,-2.1813,-2.1791,-2.173,-2.171,-2.1645,-2.1603,-2.1576,-2.1568,-2.1519,-2.1473,-2.1447,-2.1438,-2.1423,-2.1531,-2.1531,-2.1531,-2.1531,-2.1917,-2.19,-2.1875,-2.1844,-2.1808,-2.1749,-2.1735,-2.1682,-2.1622,-2.1603,-2.158,-2.1556,-2.155,-2.1527,-2.1517,-2.1502,-2.1627,-2.1627,-2.1627,-2.1966,-2.1943,-2.1941,-2.1885,-2.1834,-2.1792,-2.1778,-2.1744,-2.1671,-2.163,-2.1586,-2.1582,-2.1543,-2.1532,-2.1489,-2.1474,-2.1446,0,0]},{"header":{"parameterUnit":"m.s-1","parameterCategory":1,"la1":30.2992,"la2":30.254,"lo1":-89.0895,"lo2":-89.0443,"dy":0.0025,"dx":0.0025,"nx":19,"ny":19,"refTime":"2026-04-15T09:00:00:Z","depth":0,"parameterNumber":3,"parameterNumberName":"V-component_of_WINDS"},"data":[0,0,0,3.4281,3.428,3.4223,3.4223,3.4139,3.4138,0,0,0,0,0,0,0,0,0,0,0,3.4291,3.429,3.4281,3.4279,3.4224,3.4223,3.4139,3.4138,0,0,0,0,0,0,0,0,0,0,0,3.4291,3.4291,3.429,3.4279,3.4224,3.4223,3.4139,3.4186,0,0,0,0,0,0,0,0,0,0,3.4242,3.4246,3.4291,3.429,3.4279,3.4224,3.4223,3.4188,3.4183,3.4159,0,3.4138,0,3.4137,3.4132,3.4131,0,0,0,3.4283,3.425,3.4241,3.4289,3.4278,3.4224,3.425,3.4185,3.4179,3.4152,3.4137,3.4134,3.4135,3.4131,3.413,3.3986,3.3985,0,0,3.4287,3.4277,3.4245,3.4237,3.4247,3.4252,3.4248,3.4182,3.4164,3.4137,3.4132,3.4134,3.413,3.413,3.3987,3.3986,0,0,0,3.4293,3.4279,3.4272,3.424,3.4231,3.425,3.4246,3.4167,3.4165,3.4131,3.4133,3.413,3.4129,3.3988,3.3986,3.3935,0,0,0,3.4295,3.4283,3.4273,3.4267,3.4232,3.4198,3.4232,3.417,3.4163,3.4133,3.413,3.4128,3.3989,3.3987,3.3938,3.3911,0,0,0,3.4297,3.4283,3.4273,3.4266,3.4242,3.42,3.4195,3.4169,3.4163,3.4131,3.4127,3.3989,3.3987,3.3941,3.3916,3.3871,0,0,0,3.4296,3.4227,3.4272,3.4195,3.4242,3.4169,3.4195,3.4141,3.4107,3.4129,3.3988,3.3986,3.3942,3.392,3.3874,3.383,3.3811,0,0,3.4203,3.4215,3.4171,3.421,3.4126,3.4179,3.4087,3.4064,3.4068,3.4013,3.4009,3.3937,3.3917,3.3871,3.371,3.3695,0,0,0,3.4138,3.4106,3.4086,3.4055,3.4037,3.402,3.4012,3.4004,3.3958,3.4038,3.3909,3.3897,3.3871,3.385,3.3837,3.3815,3.3977,3.3977,3.3977,3.3992,3.4004,3.3931,3.3937,3.3906,3.39,3.3876,3.3863,3.3882,3.3852,3.3835,3.3735,3.3711,3.3701,3.3678,3.3813,3.3813,3.3813,3.3813,3.3856,3.3813,3.3843,3.3783,3.3796,3.3745,3.3737,3.3753,3.3706,3.3749,3.3726,3.3771,3.3684,3.3665,3.3809,3.3809,3.381,3.381,3.3811,3.3761,3.3742,3.3735,3.3692,3.3658,3.3665,3.362,3.3633,3.3644,3.3622,3.3605,3.3606,3.3608,3.3614,3.3613,3.3613,3.3613,3.3612,3.3612,3.3665,3.3659,3.362,3.3597,3.358,3.3558,3.3552,3.3534,3.3518,3.353,3.353,3.3552,3.3675,3.3705,3.3607,3.3608,3.3608,3.3609,3.3609,3.3521,3.3557,3.3497,3.3479,3.3454,3.3419,3.3437,3.34,3.3387,3.3364,3.3392,3.3481,3.3493,3.3503,3.3528,3.339,3.339,3.339,3.339,3.344,3.3449,3.3392,3.3363,3.3336,3.3347,3.3278,3.3274,3.3274,3.3266,3.3289,3.3323,3.3333,3.3339,3.3353,3.3376,3.3203,3.3203,3.3203,3.3353,3.336,3.3299,3.3303,3.3284,3.3267,3.3203,3.3168,3.3175,3.3195,3.3261,3.3269,3.3325,3.3342,3.3362,3.3383,3.3427,0,0]}]]